Time,TemperatureF,DewpointF,PressureIn,WindDirection,WindDirectionDegrees,WindSpeedMPH,WindSpeedGustMPH,Humidity,HourlyPrecipIn,Conditions,Clouds,dailyrainin,SoftwareType,DateUTC
2013-03-05 00:00:00,44.7,39.9,29.96,SE,135,6.0,9.0,83,0.00,,CLR,0.00,VWS V13.01,2013-03-05 08:00:00,
2013-03-05 00:15:00,44.6,39.8,29.96,SE,135,7.0,10.0,83,0.00,,CLR,0.00,VWS V13.01,2013-03-05 08:15:00,
2013-03-05 00:30:00,44.2,39.4,29.96,SSE,158,8.0,10.0,83,0.00,,CLR,0.00,VWS V13.01,2013-03-05 08:30:00,
2013-03-05 00:45:00,44.0,39.2,29.95,SSE,158,8.0,12.0,83,0.00,,CLR,0.00,VWS V13.01,2013-03-05 08:45:00,
2013-03-05 01:00:00,43.7,38.9,29.96,SSE,158,8.0,10.0,83,0.00,,CLR,0.00,VWS V13.01,2013-03-05 09:00:00,
2013-03-05 01:15:00,43.4,38.9,29.96,SSE,158,8.0,10.0,84,0.00,,CLR,0.00,VWS V13.01,2013-03-05 09:15:00,
2013-03-05 01:30:00,43.3,38.8,29.96,SSE,158,7.0,9.0,84,0.00,,CLR,0.00,VWS V13.01,2013-03-05 09:30:00,
2013-03-05 01:45:00,42.8,38.6,29.97,SSE,158,6.0,8.0,85,0.00,,CLR,0.00,VWS V13.01,2013-03-05 09:45:00,
2013-03-05 02:00:00,42.6,38.4,29.96,SSE,158,6.0,8.0,85,0.00,,CLR,0.00,VWS V13.01,2013-03-05 10:00:00,
2013-03-05 02:15:00,42.3,38.4,29.95,SSE,158,3.0,6.0,86,0.00,,CLR,0.00,VWS V13.01,2013-03-05 10:15:00,
2013-03-05 02:30:00,41.9,38.0,29.95,SSE,158,2.0,6.0,86,0.00,,CLR,0.00,VWS V13.01,2013-03-05 10:30:00,
2013-03-05 02:45:00,41.7,37.8,29.95,SSE,158,0.0,0.0,86,0.00,,CLR,0.00,VWS V13.01,2013-03-05 10:45:00,
2013-03-05 03:00:00,41.5,37.6,29.95,SSE,158,0.0,0.0,86,0.00,,CLR,0.00,VWS V13.01,2013-03-05 11:00:00,
2013-03-05 03:15:00,41.3,37.4,29.95,SSE,158,0.0,0.0,86,0.00,,CLR,0.00,VWS V13.01,2013-03-05 11:15:00,
2013-03-05 03:30:00,41.1,36.9,29.94,SSE,158,0.0,0.0,85,0.00,,CLR,0.00,VWS V13.01,2013-03-05 11:30:00,
2013-03-05 03:45:00,40.8,36.3,29.94,SSE,158,0.0,0.0,84,0.00,,CLR,0.00,VWS V13.01,2013-03-05 11:45:00,
2013-03-05 04:00:00,40.7,36.0,29.94,SSE,158,2.0,7.0,83,0.00,,CLR,0.00,VWS V13.01,2013-03-05 12:00:00,
2013-03-05 04:15:00,40.6,35.8,29.95,SSE,158,3.0,8.0,83,0.00,,CLR,0.00,VWS V13.01,2013-03-05 12:15:00,
2013-03-05 04:30:00,40.5,35.5,29.95,SSE,158,0.0,0.0,82,0.00,,CLR,0.00,VWS V13.01,2013-03-05 12:30:00,
2013-03-05 04:45:00,40.2,35.2,29.96,SSE,158,0.0,0.0,82,0.00,,CLR,0.00,VWS V13.01,2013-03-05 12:45:00,
2013-03-05 05:00:00,40.1,35.1,29.95,SSE,158,0.0,0.0,82,0.00,,CLR,0.00,VWS V13.01,2013-03-05 13:00:00,
2013-03-05 05:15:00,40.0,35.0,29.95,SSE,158,5.0,7.0,82,0.00,,CLR,0.00,VWS V13.01,2013-03-05 13:15:00,
2013-03-05 05:30:00,39.6,34.6,29.95,SSE,158,5.0,7.0,82,0.00,,CLR,0.00,VWS V13.01,2013-03-05 13:30:00,
2013-03-05 05:45:00,38.7,34.3,29.95,SSE,158,2.0,6.0,84,0.00,,CLR,0.00,VWS V13.01,2013-03-05 13:45:00,
2013-03-05 06:00:00,38.1,34.0,29.95,SSE,158,2.0,6.0,85,0.00,,CLR,0.00,VWS V13.01,2013-03-05 14:00:00,
2013-03-05 06:15:00,38.1,34.6,29.96,SSE,158,0.0,5.0,87,0.00,,CLR,0.00,VWS V13.01,2013-03-05 14:15:00,
2013-03-05 06:28:00,38.1,34.6,29.96,SSE,148,5.0,6.0,87,0.00,,CLR,0.00,VWS V13.01,2013-03-05 14:28:00,
2013-03-05 06:34:00,38.4,34.9,29.95,SE,141,5.0,6.0,87,0.00,,CLR,0.00,VWS V13.01,2013-03-05 14:34:00,
2013-03-05 06:41:00,38.7,35.2,29.95,SE,137,0.0,6.0,87,0.00,,CLR,0.00,VWS V13.01,2013-03-05 14:41:00,
2013-03-05 06:47:00,38.8,35.3,29.96,SE,137,0.0,6.0,87,0.00,,CLR,0.00,VWS V13.01,2013-03-05 14:47:00,
2013-03-05 06:53:00,38.7,35.2,29.96,SE,137,0.0,2.0,87,0.00,,CLR,0.00,VWS V13.01,2013-03-05 14:53:00,
2013-03-05 06:59:00,38.4,34.9,29.96,SE,137,0.0,2.0,87,0.00,,CLR,0.00,VWS V13.01,2013-03-05 14:59:00,
2013-03-05 07:05:00,38.4,34.9,29.96,SE,137,0.0,2.0,87,0.00,,CLR,0.00,VWS V13.01,2013-03-05 15:05:00,
2013-03-05 07:10:00,38.5,35.3,29.96,SE,137,0.0,0.0,88,0.00,,CLR,0.00,VWS V13.01,2013-03-05 15:10:00,
2013-03-05 07:16:00,38.8,35.8,29.96,SE,137,0.0,0.0,89,0.00,,CLR,0.00,VWS V13.01,2013-03-05 15:16:00,
2013-03-05 07:22:00,39.3,36.3,29.96,SE,138,0.0,0.0,89,0.00,,OVC055,0.00,VWS V13.01,2013-03-05 15:22:00,
2013-03-05 07:28:00,39.8,36.5,29.96,SE,138,0.0,0.0,88,0.00,,OVC055,0.00,VWS V13.01,2013-03-05 15:28:00,
2013-03-05 07:34:00,40.4,37.1,29.96,SE,138,6.0,8.0,88,0.00,,OVC055,0.00,VWS V13.01,2013-03-05 15:34:00,
2013-03-05 07:40:00,41.1,37.8,29.96,SE,138,6.0,7.0,88,0.00,,OVC055,0.00,VWS V13.01,2013-03-05 15:40:00,
2013-03-05 07:46:00,41.8,38.2,29.96,SE,138,6.0,8.0,87,0.00,,OVC055,0.00,VWS V13.01,2013-03-05 15:46:00,
2013-03-05 07:52:00,42.6,38.7,29.96,SE,137,7.0,8.0,86,0.00,,OVC055,0.00,VWS V13.01,2013-03-05 15:52:00,
2013-03-05 07:58:00,43.3,39.1,29.96,SE,134,6.0,8.0,85,0.00,,OVC055,0.00,VWS V13.01,2013-03-05 15:58:00,
2013-03-05 08:04:00,44.1,39.0,29.96,SE,128,9.0,12.0,82,0.00,,OVC055,0.00,VWS V13.01,2013-03-05 16:04:00,
2013-03-05 08:10:00,44.9,39.4,29.96,SE,135,7.0,12.0,81,0.00,,OVC055,0.00,VWS V13.01,2013-03-05 16:10:00,
2013-03-05 08:17:00,45.7,39.6,29.96,SE,141,9.0,12.0,79,0.00,,OVC055,0.00,VWS V13.01,2013-03-05 16:17:00,
2013-03-05 08:23:00,46.6,39.8,29.96,SE,133,9.0,12.0,77,0.00,,OVC050,0.00,VWS V13.01,2013-03-05 16:23:00,
2013-03-05 08:29:00,47.5,40.0,29.97,SE,146,7.0,13.0,75,0.00,,OVC050,0.00,VWS V13.01,2013-03-05 16:29:00,
2013-03-05 08:35:00,48.3,40.4,29.96,SSE,148,5.0,13.0,74,0.00,,OVC050,0.00,VWS V13.01,2013-03-05 16:35:00,
2013-03-05 08:41:00,49.1,40.5,29.96,SSE,153,10.0,10.0,72,0.00,,OVC050,0.00,VWS V13.01,2013-03-05 16:41:00,
2013-03-05 08:47:00,49.7,40.7,29.96,SSE,153,7.0,11.0,71,0.00,,OVC050,0.00,VWS V13.01,2013-03-05 16:47:00,
2013-03-05 08:53:00,50.4,41.7,29.95,SSE,156,10.0,11.0,72,0.00,,OVC050,0.00,VWS V13.01,2013-03-05 16:53:00,
2013-03-05 08:59:00,50.8,41.0,29.95,SSE,157,8.0,12.0,69,0.00,,OVC050,0.00,VWS V13.01,2013-03-05 16:59:00,
2013-03-05 09:05:00,51.3,41.9,29.95,SSE,165,8.0,12.0,70,0.00,,OVC050,0.00,VWS V13.01,2013-03-05 17:05:00,
2013-03-05 09:10:00,51.8,41.2,29.95,South,174,9.0,12.0,67,0.00,,OVC050,0.00,VWS V13.01,2013-03-05 17:10:00,
2013-03-05 09:16:00,52.1,41.1,29.95,SSE,167,9.0,12.0,66,0.00,,OVC050,0.00,VWS V13.01,2013-03-05 17:16:00,
2013-03-05 09:22:00,52.4,42.2,29.95,SSE,165,12.0,12.0,68,0.00,,FEW050,0.00,VWS V13.01,2013-03-05 17:22:00,
2013-03-05 09:28:00,52.9,42.3,29.95,South,175,13.0,16.0,67,0.00,,FEW050,0.00,VWS V13.01,2013-03-05 17:28:00,
2013-03-05 09:34:00,53.2,42.9,29.95,South,184,12.0,16.0,68,0.00,,FEW050,0.00,VWS V13.01,2013-03-05 17:34:00,
2013-03-05 09:39:00,53.6,42.9,29.95,SSE,165,12.0,16.0,67,0.00,,FEW050,0.00,VWS V13.01,2013-03-05 17:39:00,
2013-03-05 09:45:00,53.9,43.2,29.95,South,184,13.0,16.0,67,0.00,,FEW050,0.00,VWS V13.01,2013-03-05 17:45:00,
2013-03-05 09:51:00,54.1,43.4,29.95,SSW,192,15.0,15.0,67,0.00,,FEW050,0.00,VWS V13.01,2013-03-05 17:51:00,
2013-03-05 09:56:00,54.3,43.2,29.95,South,185,15.0,18.0,66,0.00,,FEW050,0.00,VWS V13.01,2013-03-05 17:56:00,
2013-03-05 10:02:00,54.9,43.8,29.95,South,169,13.0,18.0,66,0.00,,FEW050,0.00,VWS V13.01,2013-03-05 18:02:00,
2013-03-05 10:07:00,55.3,43.8,29.95,South,191,12.0,13.0,65,0.00,,FEW050,0.00,VWS V13.01,2013-03-05 18:07:00,
2013-03-05 10:13:00,55.4,43.8,29.95,SSW,192,11.0,17.0,65,0.00,,FEW050,0.00,VWS V13.01,2013-03-05 18:13:00,
2013-03-05 10:18:00,55.6,43.2,29.95,South,188,15.0,18.0,63,0.00,,FEW050,0.00,VWS V13.01,2013-03-05 18:18:00,
2013-03-05 10:23:00,55.7,43.7,29.94,SSW,192,12.0,17.0,64,0.00,,FEW050,0.00,VWS V13.01,2013-03-05 18:23:00,
2013-03-05 10:29:00,55.8,43.8,29.94,South,173,13.0,17.0,64,0.00,,FEW050,0.00,VWS V13.01,2013-03-05 18:29:00,
2013-03-05 10:34:00,56.1,44.1,29.94,South,188,9.0,17.0,64,0.00,,FEW050,0.00,VWS V13.01,2013-03-05 18:34:00,
2013-03-05 10:39:00,56.6,43.8,29.94,South,173,9.0,16.0,62,0.00,,FEW050,0.00,VWS V13.01,2013-03-05 18:39:00,
2013-03-05 10:45:00,56.9,44.0,29.94,South,173,13.0,18.0,62,0.00,,FEW050,0.00,VWS V13.01,2013-03-05 18:45:00,
2013-03-05 10:50:00,57.1,44.6,29.94,South,176,12.0,18.0,63,0.00,,FEW050,0.00,VWS V13.01,2013-03-05 18:50:00,
2013-03-05 10:55:00,57.6,44.3,29.94,South,183,14.0,16.0,61,0.00,,FEW050,0.00,VWS V13.01,2013-03-05 18:55:00,
2013-03-05 11:01:00,58.0,44.2,29.93,South,170,15.0,18.0,60,0.00,,FEW050,0.00,VWS V13.01,2013-03-05 19:01:00,
2013-03-05 11:06:00,58.3,44.5,29.93,SSE,165,16.0,18.0,60,0.00,,FEW050,0.00,VWS V13.01,2013-03-05 19:06:00,
2013-03-05 11:12:00,58.8,45.4,29.93,SSW,194,15.0,18.0,61,0.00,,FEW050,0.00,VWS V13.01,2013-03-05 19:12:00,
2013-03-05 11:17:00,59.0,45.2,29.93,South,170,16.0,20.0,60,0.00,,FEW050,0.00,VWS V13.01,2013-03-05 19:17:00,
2013-03-05 11:23:00,58.8,45.0,29.93,South,180,11.0,19.0,60,0.00,,CLR,0.00,VWS V13.01,2013-03-05 19:23:00,
2013-03-05 11:29:00,58.7,44.4,29.93,South,182,17.0,19.0,59,0.00,,CLR,0.00,VWS V13.01,2013-03-05 19:29:00,
2013-03-05 11:35:00,58.7,44.4,29.93,SSE,159,9.0,19.0,59,0.00,,CLR,0.00,VWS V13.01,2013-03-05 19:35:00,
2013-03-05 11:41:00,59.1,45.2,29.93,South,179,17.0,18.0,60,0.00,,CLR,0.00,VWS V13.01,2013-03-05 19:41:00,
2013-03-05 11:47:00,59.3,44.5,29.93,South,180,13.0,20.0,58,0.00,,CLR,0.00,VWS V13.01,2013-03-05 19:47:00,
2013-03-05 11:53:00,59.6,44.8,29.92,South,174,19.0,21.0,58,0.00,,CLR,0.00,VWS V13.01,2013-03-05 19:53:00,
2013-03-05 11:59:00,59.7,44.9,29.92,South,187,14.0,21.0,58,0.00,,CLR,0.00,VWS V13.01,2013-03-05 19:59:00,
2013-03-05 12:05:00,59.9,45.1,29.92,South,180,17.0,21.0,58,0.00,,CLR,0.00,VWS V13.01,2013-03-05 20:05:00,
2013-03-05 12:10:00,59.9,44.7,29.92,SSE,163,17.0,21.0,57,0.00,,CLR,0.00,VWS V13.01,2013-03-05 20:10:00,
2013-03-05 12:16:00,60.4,45.1,29.92,SSW,213,10.0,25.0,57,0.00,,CLR,0.00,VWS V13.01,2013-03-05 20:16:00,
2013-03-05 12:22:00,61.0,45.2,29.92,South,184,15.0,19.0,56,0.00,,CLR,0.00,VWS V13.01,2013-03-05 20:22:00,
2013-03-05 12:29:00,61.2,45.4,29.91,South,175,18.0,21.0,56,0.00,,CLR,0.00,VWS V13.01,2013-03-05 20:29:00,
2013-03-05 12:35:00,61.0,44.7,29.91,South,180,19.0,26.0,55,0.00,,CLR,0.00,VWS V13.01,2013-03-05 20:35:00,
2013-03-05 12:40:00,60.9,44.6,29.91,SSE,158,17.0,24.0,55,0.00,,CLR,0.00,VWS V13.01,2013-03-05 20:40:00,
2013-03-05 12:46:00,60.8,44.1,29.90,South,173,25.0,25.0,54,0.00,,CLR,0.00,VWS V13.01,2013-03-05 20:46:00,
2013-03-05 12:51:00,60.9,44.6,29.90,South,173,19.0,19.0,55,0.00,,CLR,0.00,VWS V13.01,2013-03-05 20:51:00,
2013-03-05 12:57:00,61.3,43.0,29.91,South,191,13.0,23.0,51,0.00,,CLR,0.00,VWS V13.01,2013-03-05 20:57:00,
2013-03-05 13:03:00,61.2,43.0,29.90,SSW,192,18.0,23.0,51,0.00,,CLR,0.00,VWS V13.01,2013-03-05 21:03:00,
2013-03-05 13:09:00,61.1,43.4,29.90,South,173,19.0,28.0,52,0.00,,CLR,0.00,VWS V13.01,2013-03-05 21:09:00,
2013-03-05 13:15:00,61.3,44.5,29.90,SSW,194,19.0,28.0,54,0.00,,CLR,0.00,VWS V13.01,2013-03-05 21:15:00,
2013-03-05 13:20:00,61.7,43.9,29.90,SSW,211,14.0,28.0,52,0.00,,CLR,0.00,VWS V13.01,2013-03-05 21:20:00,
2013-03-05 13:26:00,62.0,43.7,29.89,South,190,17.0,24.0,51,0.00,,CLR,0.00,VWS V13.01,2013-03-05 21:26:00,
2013-03-05 13:32:00,61.5,43.7,29.89,South,190,19.0,24.0,52,0.00,,CLR,0.00,VWS V13.01,2013-03-05 21:32:00,
2013-03-05 13:38:00,61.0,43.3,29.89,South,183,20.0,23.0,52,0.00,,CLR,0.00,VWS V13.01,2013-03-05 21:38:00,
2013-03-05 13:44:00,60.7,44.0,29.89,SW,215,16.0,24.0,54,0.00,,CLR,0.00,VWS V13.01,2013-03-05 21:44:00,
2013-03-05 13:50:00,60.7,44.0,29.89,South,180,18.0,24.0,54,0.00,,CLR,0.00,VWS V13.01,2013-03-05 21:50:00,
2013-03-05 13:56:00,60.7,44.0,29.89,SW,218,16.0,28.0,54,0.00,,CLR,0.00,VWS V13.01,2013-03-05 21:56:00,
2013-03-05 14:02:00,60.9,44.2,29.88,SSW,209,15.0,28.0,54,0.00,,CLR,0.00,VWS V13.01,2013-03-05 22:02:00,
2013-03-05 14:08:00,61.5,44.2,29.87,SW,231,12.0,18.0,53,0.00,,CLR,0.00,VWS V13.01,2013-03-05 22:08:00,
2013-03-05 14:14:00,62.1,44.8,29.87,SSW,202,18.0,21.0,53,0.00,,CLR,0.00,VWS V13.01,2013-03-05 22:14:00,
2013-03-05 14:20:00,62.0,43.7,29.87,SSW,195,18.0,23.0,51,0.00,,CLR,0.00,VWS V13.01,2013-03-05 22:20:00,
2013-03-05 14:25:00,61.6,44.3,29.87,SW,224,7.0,21.0,53,0.00,,FEW036,0.00,VWS V13.01,2013-03-05 22:25:00,
2013-03-05 14:31:00,61.0,43.3,29.87,SW,217,13.0,21.0,52,0.00,,FEW036,0.00,VWS V13.01,2013-03-05 22:31:00,
2013-03-05 14:37:00,60.6,43.9,29.87,SSW,212,12.0,20.0,54,0.00,,FEW036,0.00,VWS V13.01,2013-03-05 22:37:00,
2013-03-05 14:43:00,60.5,43.8,29.87,SSW,199,16.0,21.0,54,0.00,,FEW036,0.00,VWS V13.01,2013-03-05 22:43:00,
2013-03-05 14:49:00,60.3,43.6,29.87,SW,221,11.0,21.0,54,0.00,,FEW036,0.00,VWS V13.01,2013-03-05 22:49:00,
2013-03-05 14:55:00,60.6,42.4,29.86,SSW,208,19.0,23.0,51,0.00,,FEW036,0.00,VWS V13.01,2013-03-05 22:55:00,
2013-03-05 15:01:00,60.5,42.3,29.87,South,188,19.0,25.0,51,0.00,,FEW036,0.00,VWS V13.01,2013-03-05 23:01:00,
2013-03-05 15:07:00,59.8,41.7,29.87,SSW,199,18.0,25.0,51,0.00,,FEW036,0.00,VWS V13.01,2013-03-05 23:07:00,
2013-03-05 15:13:00,59.9,42.2,29.86,SW,222,13.0,25.0,52,0.00,,FEW036,0.00,VWS V13.01,2013-03-05 23:13:00,
2013-03-05 15:19:00,59.8,40.6,29.87,SW,215,16.0,30.0,49,0.00,,FEW036,0.00,VWS V13.01,2013-03-05 23:19:00,
2013-03-05 15:25:00,59.2,41.6,29.87,SSW,205,15.0,27.0,52,0.00,,FEW034,0.00,VWS V13.01,2013-03-05 23:25:00,
2013-03-05 15:31:00,59.0,42.4,29.87,SW,223,11.0,27.0,54,0.00,,FEW034,0.00,VWS V13.01,2013-03-05 23:31:00,
2013-03-05 15:37:00,59.0,42.9,29.87,SW,223,17.0,20.0,55,0.00,,FEW034,0.00,VWS V13.01,2013-03-05 23:37:00,
2013-03-05 15:43:00,58.9,43.2,29.87,SW,219,9.0,21.0,56,0.00,,FEW034,0.00,VWS V13.01,2013-03-05 23:43:00,
2013-03-05 15:49:00,58.6,43.4,29.87,SW,220,12.0,21.0,57,0.00,,FEW034,0.00,VWS V13.01,2013-03-05 23:49:00,
2013-03-05 15:55:00,58.5,42.9,29.86,SW,215,12.0,26.0,56,0.00,,FEW034,0.00,VWS V13.01,2013-03-05 23:55:00,
2013-03-05 16:01:00,57.9,42.8,29.86,SSW,204,13.0,26.0,57,0.00,,FEW034,0.00,VWS V13.01,2013-03-06 00:01:00,
2013-03-05 16:08:00,57.5,41.9,29.86,SW,222,11.0,20.0,56,0.00,,FEW034,0.00,VWS V13.01,2013-03-06 00:08:00,
2013-03-05 16:14:00,57.0,42.4,29.86,SSW,200,19.0,20.0,58,0.00,,FEW034,0.00,VWS V13.01,2013-03-06 00:14:00,
2013-03-05 16:20:00,56.6,42.0,29.85,South,188,14.0,20.0,58,0.00,,FEW034,0.00,VWS V13.01,2013-03-06 00:20:00,
2013-03-05 16:26:00,56.4,42.3,29.85,SSW,194,19.0,23.0,59,0.00,,CLR,0.00,VWS V13.01,2013-03-06 00:26:00,
2013-03-05 16:32:00,56.2,42.5,29.85,SSW,201,15.0,23.0,60,0.00,,CLR,0.00,VWS V13.01,2013-03-06 00:32:00,
2013-03-05 16:38:00,55.9,42.7,29.84,South,184,16.0,22.0,61,0.00,,CLR,0.00,VWS V13.01,2013-03-06 00:38:00,
2013-03-05 16:44:00,55.8,42.6,29.84,South,190,19.0,22.0,61,0.00,,CLR,0.00,VWS V13.01,2013-03-06 00:44:00,
2013-03-05 16:50:00,55.8,42.6,29.83,SSW,203,20.0,22.0,61,0.00,,CLR,0.00,VWS V13.01,2013-03-06 00:50:00,
2013-03-05 16:56:00,55.7,42.9,29.83,South,182,16.0,21.0,62,0.00,,CLR,0.00,VWS V13.01,2013-03-06 00:56:00,
2013-03-05 17:02:00,55.5,43.1,29.83,SSW,192,19.0,21.0,63,0.00,,CLR,0.00,VWS V13.01,2013-03-06 01:02:00,
2013-03-05 17:08:00,55.2,42.8,29.82,South,170,16.0,18.0,63,0.00,,CLR,0.00,VWS V13.01,2013-03-06 01:08:00,
2013-03-05 17:15:00,54.7,43.2,29.82,SSW,194,14.0,18.0,65,0.00,,CLR,0.00,VWS V13.01,2013-03-06 01:15:00,
2013-03-05 17:30:00,53.9,42.4,29.81,SSW,192,13.0,15.0,65,0.00,,CLR,0.00,VWS V13.01,2013-03-06 01:30:00,
2013-03-05 17:45:00,53.5,42.4,29.81,South,176,9.0,15.0,66,0.00,,CLR,0.00,VWS V13.01,2013-03-06 01:45:00,
2013-03-05 18:00:00,52.8,41.8,29.80,South,177,12.0,15.0,66,0.00,,CLR,0.00,VWS V13.01,2013-03-06 02:00:00,
2013-03-05 18:15:00,52.6,42.0,29.80,South,175,9.0,18.0,67,0.00,,CLR,0.00,VWS V13.01,2013-03-06 02:15:00,
2013-03-05 18:30:00,52.1,41.9,29.80,South,182,9.0,12.0,68,0.00,,CLR,0.00,VWS V13.01,2013-03-06 02:30:00,
2013-03-05 18:45:00,52.2,42.0,29.80,SSW,209,6.0,14.0,68,0.00,,CLR,0.00,VWS V13.01,2013-03-06 02:45:00,
2013-03-05 19:00:00,52.2,42.3,29.79,SSW,202,8.0,17.0,69,0.00,,CLR,0.00,VWS V13.01,2013-03-06 03:00:00,
2013-03-05 19:15:00,52.3,42.1,29.80,SSW,192,5.0,13.0,68,0.00,,CLR,0.00,VWS V13.01,2013-03-06 03:15:00,
2013-03-05 19:30:00,52.2,41.6,29.79,SSW,192,17.0,20.0,67,0.00,,CLR,0.00,VWS V13.01,2013-03-06 03:30:00,
2013-03-05 19:45:00,52.3,41.7,29.80,South,169,12.0,20.0,67,0.00,,CLR,0.00,VWS V13.01,2013-03-06 03:45:00,
2013-03-05 20:00:00,52.5,41.5,29.79,SSW,197,20.0,28.0,66,0.00,,CLR,0.00,VWS V13.01,2013-03-06 04:00:00,
2013-03-05 20:15:00,52.9,41.1,29.79,SSW,198,22.0,32.0,64,0.00,,CLR,0.00,VWS V13.01,2013-03-06 04:15:00,
2013-03-05 20:30:00,52.7,41.3,29.79,South,169,18.0,28.0,65,0.00,,CLR,0.00,VWS V13.01,2013-03-06 04:30:00,
2013-03-05 20:45:00,52.5,41.5,29.79,South,175,18.0,26.0,66,0.00,,CLR,0.00,VWS V13.01,2013-03-06 04:45:00,
2013-03-05 21:00:00,52.5,41.9,29.79,South,184,23.0,31.0,67,0.00,,CLR,0.00,VWS V13.01,2013-03-06 05:00:00,
2013-03-05 21:15:00,52.2,42.0,29.79,SSE,167,20.0,25.0,68,0.00,,CLR,0.00,VWS V13.01,2013-03-06 05:15:00,
2013-03-05 21:30:00,51.7,43.0,29.79,South,184,9.0,22.0,72,0.00,,CLR,0.00,VWS V13.01,2013-03-06 05:30:00,
2013-03-05 21:45:00,49.9,44.3,29.79,SSW,194,24.0,30.0,81,0.01,,CLR,0.01,VWS V13.01,2013-03-06 05:45:00,
2013-03-05 21:56:00,49.5,44.2,29.79,South,182,21.0,37.0,82,0.01,,CLR,0.01,VWS V13.01,2013-03-06 05:56:00,
2013-03-05 22:00:00,49.4,44.1,29.79,South,180,26.0,37.0,82,0.01,,CLR,0.01,VWS V13.01,2013-03-06 06:00:00,
2013-03-05 22:05:00,49.1,44.5,29.79,South,184,16.0,37.0,84,0.02,,CLR,0.02,VWS V13.01,2013-03-06 06:05:00,
2013-03-05 22:10:00,48.8,44.5,29.79,South,169,17.0,25.0,85,0.02,,CLR,0.02,VWS V13.01,2013-03-06 06:10:00,
2013-03-05 22:15:00,48.5,44.8,29.78,South,180,18.0,25.0,87,0.03,,CLR,0.03,VWS V13.01,2013-03-06 06:15:00,
2013-03-05 22:30:00,48.2,46.0,29.78,South,180,16.0,22.0,92,0.04,,CLR,0.04,VWS V13.01,2013-03-06 06:30:00,
2013-03-05 22:45:00,48.0,44.9,29.78,SSE,158,15.0,23.0,89,0.05,,CLR,0.05,VWS V13.01,2013-03-06 06:45:00,
2013-03-05 23:00:00,48.0,44.9,29.77,SSE,158,16.0,22.0,89,0.04,,CLR,0.05,VWS V13.01,2013-03-06 07:00:00,
2013-03-05 23:15:00,48.3,44.6,29.77,SSE,158,17.0,25.0,87,0.03,,CLR,0.05,VWS V13.01,2013-03-06 07:15:00,
2013-03-05 23:30:00,48.7,44.7,29.76,SSE,158,20.0,27.0,86,0.02,,CLR,0.05,VWS V13.01,2013-03-06 07:30:00,
2013-03-05 23:45:00,49.1,44.8,29.77,SSE,158,18.0,27.0,85,0.01,,CLR,0.05,VWS V13.01,2013-03-06 07:45:00,